This is the latest recevied weather packets stored in our database for station/object N3WMC. If no packets are shown the sender has not sent any weather packets the latest 10 day(s).
| Time | Temp. | Humidity | Pressure | Rain* | Wind** | Luminosity | Snow |
|---|---|---|---|---|---|---|---|
| 1777919510 | 22.22° C | 44% | 1008.8 hPa | 0 mm | - | 675 W/m² | - |
| 1777919208 | 22.22° C | 44% | 1009.3 hPa | 0 mm | - | 186 W/m² | - |
| 1777918905 | 21.67° C | 43% | 1009 hPa | 0 mm | - | 664 W/m² | - |
| 1777918603 | 22.22° C | 43% | 1009 hPa | 0 mm | - | 704 W/m² | - |
| 1777918300 | 21.67° C | 47% | 1009.3 hPa | 0 mm | - | 232 W/m² | - |
| 1777918000 | 21.67° C | 44% | 1009.4 hPa | 0 mm | - | 430 W/m² | - |
| 1777917698 | 21.11° C | 45% | 1009.5 hPa | 0 mm | - | 312 W/m² | - |
| 1777917395 | 21.11° C | 45% | 1009.5 hPa | 0 mm | - | 305 W/m² | - |
| 1777917091 | 21.67° C | 43% | 1009.6 hPa | 0 mm | - | 226 W/m² | - |
| 1777916790 | 21.67° C | 44% | 1009.7 hPa | 0 mm | - | 734 W/m² | - |
| 1777916485 | 21.67° C | 43% | 1009.6 hPa | 0 mm | - | 225 W/m² | - |
| 1777916183 | 21.67° C | 43% | 1009.8 hPa | 0 mm | - | 733 W/m² | - |
| 1777915880 | 21.11° C | 42% | 1009.8 hPa | 0 mm | - | 673 W/m² | - |
| 1777915576 | 21.11° C | 44% | 1009.6 hPa | 0 mm | - | 730 W/m² | - |
| 1777915273 | 20.56° C | 44% | 1009.7 hPa | 0 mm | - | 397 W/m² | - |
| 1777914970 | 21.67° C | 45% | 1009.9 hPa | 0 mm | - | 744 W/m² | - |
| 1777914667 | 20.56° C | 43% | 1009.9 hPa | 0 mm | - | 329 W/m² | - |
| 1777914362 | 21.11° C | 43% | 1010.1 hPa | 0 mm | - | 749 W/m² | - |
| 1777914061 | 21.11° C | 45% | 1010 hPa | 0 mm | - | 711 W/m² | - |
| 1777913756 | 21.11° C | 43% | 1010.2 hPa | 0 mm | - | 702 W/m² | - |
| 1777913453 | 21.11° C | 45% | 1010.4 hPa | 0 mm | - | 704 W/m² | - |
| 1777913149 | 20.56° C | 45% | 1010.5 hPa | 0 mm | - | 704 W/m² | - |
| 1777912846 | 20.56° C | 43% | 1010.5 hPa | 0 mm | - | 706 W/m² | - |
| 1777912543 | 20.56° C | 43% | 1010.8 hPa | 0 mm | - | 700 W/m² | - |
| 1777912239 | 20° C | 44% | 1010.7 hPa | 0 mm | - | 699 W/m² | - |
* Rain latest hour (hover to see other rain measurements)
** Current wind speed in m/s (hover to see current wind gust speed)